Other Public Products
Issued by NWS Grand Forks, ND

Home | Current Version | Previous Version | Text Only | Print | Product List | Glossary Off
Versions: 1 2 3 4 5 6 7 8 9 10 11 12 13 14 15 16 17 18 19 20 21 22 23 24 25 26 27 28 29 30 31 32 33 34 35 36 37 38 39 40 41 42 43 44 45 46 47 48 49 50

000
FPUS83 KFGF 191431
OPUFGF
PRAIRIE TO PINES WEATHER ROUNDUP
NATIONAL WEATHER SERVICE EASTERN NORTH DAKOTA/GRAND FORKS ND
900 AM CDT TUE SEP 19 2017

 **SATELLITE DATA USED TO AUGMENT SKY COVER AT AUTOMATED STATIONS**
 *****  WEATHER ACROSS EASTERN NORTH DAKOTA  *****

CITY           SKY/WX    TMP DP  RH WIND       PRES   REMARKS
GRAND FORKS    FOG       60  60 100 SE16      29.72F VSB 1
GRAND FORKS AF CLOUDY    59  59 100 SE13G22   29.71F FOG
GRAND CITY NWS NOT AVBL
BUXTON           N/A     60  60  99 SE12        N/A
DEVILS LAKE    CLOUDY    59  59 100 SE17G28   29.65F FOG
FARGO          CLOUDY    63  62  97 SE15G23   29.73F FOG
WAHPETON ARPT  CLOUDY    63  59  88 SE12G18   29.75F
$$

 *****  WEATHER ACROSS CENTRAL AND WESTERN NORTH DAKOTA  *****

CITY           SKY/WX    TMP DP  RH WIND       PRES   REMARKS
JAMESTOWN      NOT AVBL
BISMARCK       FAIR      63  47  55 SE22G31   29.51F
MINOT          CLOUDY    60  58  92 E24G31    29.47F
MINOT AFB      CLOUDY    59  59 100 SE24G32   29.47S FOG
GARRISON         N/A     61  59  93 SE13      29.48R
WILLISTON      PTSUNNY   58  51  78 VRB5      29.41F
DICKINSON      LGT RAIN  59  50  72 SW8       29.44S
HETTINGER      CLOUDY    60  44  55 SW9       29.52R
$$

 *****  OTHER OBSERVATIONS NORTHEAST NORTH DAKOTA  *****

CITY           SKY/WX    TMP DP  RH WIND       PRES   REMARKS
WALHALLA       FAIR     N/A N/A N/A SE14      29.72S FOG
LANGDON        FOG       57  57 100 SE18G25   29.69F VSB 3/4
CAVALIER       FOG       57  57 100 VRB6G15   29.73S VSB 1/2
GRAFTON        FOG       59  59 100 SE14      29.74S VSB 3/4
CANDO          CLOUDY    59  59 100 SE18G25   29.65F FOG
FORT TOTTEN      N/A     60  60 100 SE10      29.95
ROLLA          FOG       55  55 100 E17       29.62F VSB<1/4
RUGBY          CLOUDY    59  59 100 SE28      29.54F FOG
 ***** THE ABOVE OBSERVATIONS ARE NON NWS ARE NOT QUALITY
        CONTROLLED AND MAY MIS-REPORT RAIN FOR SNOW...
$$

 *****  OTHER OBSERVATIONS SOUTHEAST NORTH DAKOTA *****

CITY           SKY/WX    TMP DP  RH WIND       PRES   REMARKS
COOPERSTOWN    FOG       61  61 100 SE15      29.69F VSB<1/4
VALLEY CITY    CLOUDY    63  63 100 SE16G23   29.70F FOG
OAKES          NOT AVBL
GWINNER        CLOUDY    64  64 100 SE10G16   29.70F FOG
SHEYENNE NWR     N/A     63  63 100 SE13      29.95
BUFFALO          N/A     61  59  93 W12         N/A
WYNDMERE       NOT AVBL
 ***** THE ABOVE OBSERVATIONS ARE NON NWS ARE NOT QUALITY
       CONTROLLED AND MAY MIS-REPORT RAIN FOR SNOW...
$$

  *****  WEATHER ACROSS NORTHERN MINNESOTA  *****

CITY           SKY/WX    TMP DP  RH WIND       PRES   REMARKS
FLAG ISLAND    CLOUDY    55  54  94 SE12      29.85S
WARROAD        CLOUDY    55  52  88 SE10      29.84F FOG
ROSEAU         CLOUDY    57  52  82 SE10      29.82S HAZE
HALLOCK        CLOUDY    57  57 100 E15       29.74F FOG
THF RVR FALLS  CLOUDY    57  55  93 SE14      29.80F
HALSTAD          N/A     60  59  95 SE15        N/A
FOSSTON        CLOUDY    57  55  94 SE9G16    29.81S
BAUDETTE       CLOUDY    54  54 100 SE12      29.86F
WASKISH        CLOUDY    55  55 100 SE8       29.86F FOG
CROOKSTON      CLOUDY    59  57  94 SE15G21   29.76F
$$
  *****  WEATHER ACROSS CENTRAL AND WEST MINNESOTA  *****

CITY           SKY/WX    TMP DP  RH WIND       PRES   REMARKS
BEMIDJI        CLOUDY    57  56  98 SE9       29.85S
PARK RAPIDS    CLOUDY    58  57  97 SE10      29.85F FOG
WADENA         CLOUDY    57  57 100 SE10      29.84S FOG
DETROIT LAKES  FOG       59  57  94 SE15      29.81F VSB 1
MOORHEAD       CLOUDY    63  61  94 SE14G21   29.75F FOG
FERGUS FALLS   CLOUDY    63  63 100 SE13G18   29.78F FOG
ELBOW LAKE     CLOUDY    62  62 100 SE10      29.79F FOG
MORRIS MN      CLOUDY    64  64 100 SE17      29.78S FOG
STAPLES        CLOUDY    57  57 100 SE8       29.86F FOG
WHEATON        CLOUDY    66  63  88 SE16      29.77S FOG
$$
  *****  WEATHER ELSEWHERE ACROSS MINNESOTA  *****

CITY           SKY/WX    TMP DP  RH WIND       PRES   REMARKS
DULUTH         CLOUDY    56  56 100 SE7       29.95S
INTRNTL FALLS  CLOUDY    56  53  90 SE7       29.92S
ELY            CLOUDY    57  55  94 SE5       29.96R
CLOQUET        CLOUDY    57  55  94 SE5       29.96R
BRAINERD       CLOUDY    58  57  97 SE6       29.89F FOG
HIBBING        CLOUDY    55  55 100 SE7       29.94R FOG
ALEXANDRIA     FOG       61  61 100 SE10      29.84F VSB 1
SAINT CLOUD    CLOUDY    60  60 100 SE8       29.88F FOG
MINNEAPOLIS    FAIR      63  59  87 SE12      29.91F
$$

  *****  WEATHER ACROSS SOUTH DAKOTA  *****

CITY           SKY/WX    TMP DP  RH WIND       PRES   REMARKS
SIOUX FALLS    DRIZZLE   67  66  97 S14G23    29.77F FOG
BROOKINGS      CLOUDY    65  64  97 SE17      29.78F
WATERTOWN      CLOUDY    65  65 100 SE15G23   29.74F FOG
HURON          CLOUDY    67  64  90 SE20      29.68F
SISSETON         N/A     66  65  96 SE15      29.73F
ABERDEEN       CLOUDY    68  65  90 S18G26    29.66F
MITCHELL       CLOUDY    68  65  90 SE18G26   29.70F
PIERRE         FAIR      64  60  87 SE15G24   29.55F
MOBRIDGE       FAIR      65  61  87 SE18      29.52F
RAPID CITY     SUNNY     57  48  72 S7        29.54F
$$

  *****  SOME WEATHER IN NEARBY STATES *****

CITY           SKY/WX    TMP DP  RH WIND       PRES   REMARKS
GLASGOW MT     CLOUDY    49  46  90 W10       29.51R
GREAT FALLS MT FAIR      42  33  70 SW10      29.64S
CHEYENNE WY    FAIR      53  32  44 SW6       29.76F
SCOTTSBLUFF NE FAIR      54  51  90 SE8       29.65S
OMAHA NE       CLOUDY    69  65  86 SE12      29.83S FOG
DES MOINES IA  FOG       64  64 100 SE7       29.89S VSB 1
DAVENPORT IA   PTSUNNY   66  62  87 SE3       29.98R FOG
CHICAGO IL     CLOUDY    70  65  84 VRB3      29.96S
EAU CLAIRE WI  PTSUNNY   59  56  89 SE6       29.97S
LA CROSSE WI   FAIR      63  57  81 E7        29.96F
$$

  *****  SOME NATIONAL WEATHER *****

CITY           SKY/WX    TMP DP  RH WIND       PRES   REMARKS
LA GUARDIA NY  PTSUNNY   73  66  78 NE18      30.01R
RALEIGH NC     FAIR      72  66  81 N7        30.02R
ATLANTA GA     FAIR      77  65  66 NW3       30.05R
NEW ORLEANS LA FAIR      82  76  81 VRB5      30.02R
OKLAHOMA CITY  FAIR      75  70  84 S17       29.87F
ALBUQUERQUE NM FAIR      62  28  27 CALM      30.09R
SALT LAKE CITY LGT RAIN  49  46  90 N15G25    29.88R
LOS ANGELES CA CLOUDY    68  61  78 CALM      29.92R
BOISE ID       CLOUDY    48  40  73 CALM      29.87R
SEATTLE WA     MOCLDY    51  48  89 S14       29.71R
$$

*** WEATHER ACROSS MANITOBA...SASKATCHEWAN AND ONTARIO ***
                ***ONTARIO***

CITY           SKY/WX    TMP DP  RH WIND       PRES   REMARKS
GERALDTON      PTSUNNY   52  52 100 CALM      30.07S
THUNDER BAY    CLOUDY    59  55  88 E6        30.03R
SIOUX LOOKOUT  DRIZZLE   54  52  94 SE7       29.96S FOG
TORONTO        PTSUNNY   72  66  83 N3        30.04S
BIG TROUT LK   PTSUNNY   46  41  81 SW6       30.05S
PICKLE LAKE    CLOUDY    43  41  93 SE8       30.01S
DRYDEN         CLOUDY    54  52  94 SE9       29.93S
KENORA         CLOUDY    55  54  94 SE9       29.88F
$$
                *** MANITOBA***

CITY           SKY/WX    TMP DP  RH WIND       PRES   REMARKS
BRANDON        CLOUDY    55  55 100 E16G23    29.64F
DAUPHIN        LGT RAIN  52  52 100 E15G21    29.66F VSB 1/4
ISLAND LAKE    NOT AVBL
PILOT MOUND      N/A     57  54  88 SE16G23     N/A
THE PAS        CLOUDY    52  46  82 E14G23    29.76F
THOMPSON       MOSUNNY   41  39  93 VRB2      29.94S
WINNIPEG       CLOUDY    57  55  94 SE15G22   29.76F
LYNN LAKE      SUNNY     41  39  93 E5        29.89S
CHURCHILL      PTSUNNY   41  37  87 SW5       29.99R
GILLAM         MOSUNNY   39  37  93 SW2       29.98S
$$
                ***SASKATCHEWAN***

CITY           SKY/WX    TMP DP  RH WIND       PRES   REMARKS
ESTEVAN        CLOUDY    54  50  87 E17G24    29.44F
KINDERSLEY     MOCLDY    43  43 100 W9        29.48S
LLOYDMINSTER   LGT RAIN  45  45 100 S7        29.43S FOG
PRINCE ALBERT  LGT RAIN  52  48  87 E13       29.55F
REGINA         LGT RAIN  54  48  82 SE14      29.47F
YORKTON        MOSUNNY   55  50  82 E17G26    29.56F


USA.gov is the U.S. government's official web portal to all federal, state and local government web resources and services.